StationID,Date,MaxTemp,MinTemp,Precipitation,Snowfall,SnowDepth
"CA001108482","1995-09-01",,,0.00,0.00,0.00
"CA001108482","1995-09-02",,,0.00,0.00,0.00
"CA001108482","1995-09-03",,,0.00,0.00,0.00
"CA001108482","1995-09-04",,,36.00,0.00,0.00
"CA001108482","1995-09-05",,,12.00,0.00,0.00
"CA001108482","1995-09-06",,,0.00,0.00,0.00
"CA001108482","1995-09-07",,,0.00,0.00,0.00
"CA001108482","1995-09-08",,,0.00,0.00,0.00
"CA001108482","1995-09-09",,,0.00,0.00,0.00
"CA001108482","1995-09-10",,,0.00,0.00,0.00
"CA001108482","1995-09-11",,,0.00,0.00,0.00
"CA001108482","1995-09-12",,,0.00,0.00,0.00
"CA001108482","1995-09-13",,,0.00,0.00,0.00
"CA001108482","1995-09-14",,,0.00,0.00,0.00
"CA001108482","1995-09-15",,,0.00,0.00,0.00
"CA001108482","1995-09-16",,,0.00,0.00,0.00
"CA001108482","1995-09-17",,,0.00,0.00,0.00
"CA001108482","1995-09-18",,,,0.00,0.00
"CA001108482","1995-09-19",,,,0.00,0.00
"CA001108482","1995-09-20",,,0.00,0.00,0.00
"CA001108482","1995-09-21",,,0.00,0.00,0.00
"CA001108482","1995-09-22",,,0.00,0.00,0.00
"CA001108482","1995-09-23",,,0.00,0.00,0.00
"CA001108482","1995-09-24",,,0.00,0.00,0.00
"CA001108482","1995-09-25",,,0.00,0.00,0.00
"CA001108482","1995-09-26",,,6.00,0.00,0.00
"CA001108482","1995-09-27",,,74.00,0.00,0.00
"CA001108482","1995-09-28",,,0.00,0.00,0.00
"CA001108482","1995-09-29",,,,0.00,0.00
"CA001108482","1995-09-30",,,,0.00,0.00
"CA001108482","1995-10-01",,,,0.00,0.00
"CA001108482","1995-10-02",,,,0.00,0.00
"CA001108482","1995-10-03",,,0.00,0.00,0.00
"CA001108482","1995-10-04",,,0.00,0.00,0.00
"CA001108482","1995-10-05",,,,0.00,0.00
"CA001108482","1995-10-06",,,,0.00,0.00
"CA001108482","1995-10-07",,,,0.00,0.00
"CA001108482","1995-10-08",,,,0.00,0.00
"CA001108482","1995-10-09",,,,0.00,0.00
"CA001108482","1995-10-10",,,,0.00,0.00
"CA001108482","1995-10-11",,,,0.00,0.00
"CA001108482","1995-10-12",,,,0.00,0.00
"CA001108482","1995-10-13",,,,0.00,0.00
"CA001108482","1995-10-14",,,0.00,0.00,0.00
"CA001108482","1995-10-15",,,,0.00,0.00
"CA001108482","1995-10-16",,,,0.00,0.00
"CA001108482","1995-10-17",,,,0.00,0.00
"CA001108482","1995-10-18",,,0.00,0.00,0.00
"CA001108482","1995-10-19",,,58.00,0.00,0.00
"CA001108482","1995-10-20",,,22.00,0.00,0.00
"CA001108482","1995-10-21",,,0.00,0.00,0.00
"CA001108482","1995-10-22",,,0.00,0.00,0.00
"CA001108482","1995-10-23",,,,0.00,0.00
"CA001108482","1995-10-24",,,,0.00,0.00
"CA001108482","1995-10-25",,,,0.00,0.00
"CA001108482","1995-10-26",,,0.00,0.00,0.00
"CA001108482","1995-10-27",,,0.00,0.00,0.00
"CA001108482","1995-10-28",,,0.00,0.00,0.00
"CA001108482","1995-10-29",,,0.00,0.00,0.00
"CA001108482","1995-10-30",,,0.00,0.00,0.00
"CA001108482","1995-10-31",,,0.00,0.00,0.00
"CA001108482","1995-11-01",,,0.00,0.00,0.00
"CA001108482","1995-11-02",,,0.00,0.00,0.00
"CA001108482","1995-11-03",,,0.00,0.00,0.00
"CA001108482","1995-11-04",,,48.00,0.00,0.00
"CA001108482","1995-11-05",,,10.00,0.00,0.00
"CA001108482","1995-11-06",,,,0.00,0.00
"CA001108482","1995-11-07",,,,0.00,0.00
"CA001108482","1995-11-08",,,,0.00,0.00
"CA001108482","1995-11-09",,,0.00,0.00,0.00
"CA001108482","1995-11-10",,,,0.00,0.00
"CA001108482","1995-11-11",,,,0.00,0.00
"CA001108482","1995-11-12",,,,0.00,0.00
"CA001108482","1995-11-13",,,,0.00,0.00
"CA001108482","1995-11-14",,,,0.00,0.00
"CA001108482","1995-11-15",,,78.00,0.00,0.00
"CA001108482","1995-11-16",,,,0.00,0.00
"CA001108482","1995-11-17",,,,0.00,0.00
"CA001108482","1995-11-18",,,,0.00,0.00
"CA001108482","1995-11-19",,,0.00,0.00,0.00
"CA001108482","1995-11-20",,,0.00,0.00,0.00
"CA001108482","1995-11-21",,,,0.00,0.00
"CA001108482","1995-11-22",,,,0.00,0.00
"CA001108482","1995-11-23",,,,0.00,0.00
"CA001108482","1995-11-24",,,192.00,0.00,0.00
"CA001108482","1995-11-25",,,84.00,0.00,0.00
"CA001108482","1995-11-26",,,,0.00,0.00
"CA001108482","1995-11-27",,,,0.00,0.00
"CA001108482","1995-11-28",,,250.00,0.00,0.00
"CA001108482","1995-11-29",,,58.00,0.00,0.00
"CA001108482","1995-11-30",,,24.00,0.00,0.00
"CA001108482","1995-12-01",,,,0.00,0.00
"CA001108482","1995-12-02",,,,0.00,0.00
"CA001108482","1995-12-03",,,,0.00,0.00
"CA001108482","1995-12-04",,,0.00,0.00,0.00
"CA001108482","1995-12-05",,,0.00,0.00,0.00
"CA001108482","1995-12-06",,,0.00,0.00,0.00
"CA001108482","1995-12-07",,,0.00,0.00,0.00
"CA001108482","1995-12-08",,,0.00,0.00,0.00
"CA001108482","1995-12-09",,,,,0.00
"CA001108482","1995-12-10",,,,0.00,0.00
"CA001108482","1995-12-11",,,,0.00,0.00
"CA001108482","1995-12-12",,,,0.00,0.00
"CA001108482","1995-12-13",,,,0.00,0.00
"CA001108482","1995-12-14",,,,0.00,0.00
"CA001108482","1995-12-15",,,,0.00,0.00
"CA001108482","1995-12-16",,,2.00,0.00,0.00
"CA001108482","1995-12-17",,,,0.00,0.00
"CA001108482","1995-12-18",,,,0.00,0.00
"CA001108482","1995-12-19",,,,0.00,0.00
"CA001108482","1995-12-20",,,0.00,0.00,0.00
"CA001108482","1995-12-21",,,0.00,0.00,0.00
"CA001108482","1995-12-22",,,0.00,0.00,0.00
"CA001108482","1995-12-23",,,0.00,0.00,0.00
"CA001108482","1995-12-24",,,0.00,0.00,0.00
"CA001108482","1995-12-25",,,0.00,0.00,0.00
"CA001108482","1995-12-26",,,,0.00,0.00
"CA001108482","1995-12-27",,,,0.00,0.00
"CA001108482","1995-12-28",,,,0.00,0.00
"CA001108482","1995-12-29",,,,0.00,0.00
"CA001108482","1995-12-30",,,,0.00,0.00
"CA001108482","1995-12-31",,,34.00,0.00,0.00
"CA001108482","1996-01-01",,,58.00,0.00,0.00
"CA001108482","1996-01-02",,,104.00,0.00,0.00
"CA001108482","1996-01-03",,,10.00,0.00,0.00
"CA001108482","1996-01-04",,,0.00,0.00,0.00
"CA001108482","1996-01-05",,,98.00,8.00,0.00
"CA001108482","1996-01-06",,,162.00,0.00,0.00
"CA001108482","1996-01-07",,,4.00,0.00,0.00
"CA001108482","1996-01-08",,,140.00,0.00,0.00
"CA001108482","1996-01-09",,,6.00,0.00,0.00
"CA001108482","1996-01-10",,,8.00,0.00,0.00
"CA001108482","1996-01-11",,,0.00,0.00,0.00
"CA001108482","1996-01-12",,,64.00,0.00,0.00
"CA001108482","1996-01-13",,,436.00,0.00,0.00
"CA001108482","1996-01-14",,,296.00,0.00,0.00
"CA001108482","1996-01-15",,,64.00,0.00,0.00
"CA001108482","1996-01-16",,,0.00,0.00,0.00
"CA001108482","1996-01-17",,,0.00,0.00,0.00
"CA001108482","1996-01-18",,,0.00,0.00,0.00
"CA001108482","1996-01-19",,,2.00,0.00,0.00
"CA001108482","1996-01-20",,,146.00,146.00,0.00
"CA001108482","1996-01-21",,,0.00,0.00,50.00
"CA001108482","1996-01-22",,,160.00,160.00,20.00
"CA001108482","1996-01-23",,,100.00,82.00,70.00
"CA001108482","1996-01-24",,,0.00,0.00,40.00
"CA001108482","1996-01-25",,,0.00,0.00,10.00
"CA001108482","1996-01-26",,,0.00,0.00,10.00
"CA001108482","1996-01-27",,,4.00,4.00,10.00
"CA001108482","1996-01-28",,,0.00,0.00,10.00
"CA001108482","1996-01-29",,,0.00,0.00,10.00
"CA001108482","1996-01-30",,,0.00,0.00,10.00
"CA001108482","1996-01-31",,,0.00,0.00,10.00
"CA001108482","1996-02-01",,,0.00,0.00,10.00
"CA001108482","1996-02-02",,,0.00,0.00,0.00
"CA001108482","1996-02-03",,,62.00,20.00,0.00
"CA001108482","1996-02-04",,,44.00,0.00,10.00
"CA001108482","1996-02-05",,,122.00,0.00,0.00
"CA001108482","1996-02-06",,,122.00,0.00,0.00
"CA001108482","1996-02-07",,,218.00,0.00,0.00
"CA001108482","1996-02-08",,,52.00,0.00,0.00
"CA001108482","1996-02-09",,,0.00,0.00,0.00
"CA001108482","1996-02-10",,,0.00,0.00,0.00
"CA001108482","1996-02-11",,,0.00,0.00,0.00
"CA001108482","1996-02-12",,,0.00,0.00,0.00
"CA001108482","1996-02-13",,,0.00,0.00,0.00
"CA001108482","1996-02-14",,,0.00,0.00,0.00
"CA001108482","1996-02-15",,,0.00,0.00,0.00
"CA001108482","1996-02-16",,,58.00,0.00,0.00
"CA001108482","1996-02-17",,,230.00,0.00,0.00
"CA001108482","1996-02-18",,,38.00,0.00,0.00
"CA001108482","1996-02-19",,,54.00,0.00,0.00
"CA001108482","1996-02-20",,,6.00,0.00,0.00
"CA001108482","1996-02-21",,,36.00,0.00,0.00
"CA001108482","1996-02-22",,,116.00,20.00,0.00
"CA001108482","1996-02-23",,,86.00,10.00,
"CA001108482","1996-02-24",,,0.00,0.00,
"CA001108482","1996-02-25",,,0.00,0.00,
"CA001108482","1996-02-26",,,0.00,0.00,
"CA001108482","1996-02-27",,,0.00,0.00,
"CA001108482","1996-02-28",,,0.00,0.00,
"CA001108482","1996-02-29",,,0.00,0.00,0.00
"CA001108482","1996-03-01",,,0.00,0.00,0.00
"CA001108482","1996-03-02",,,,0.00,0.00
"CA001108482","1996-03-03",,,,0.00,0.00
"CA001108482","1996-03-04",,,0.00,0.00,0.00
"CA001108482","1996-03-05",,,0.00,0.00,0.00
"CA001108482","1996-03-06",,,4.00,0.00,0.00
"CA001108482","1996-03-07",,,10.00,0.00,0.00
"CA001108482","1996-03-08",,,114.00,0.00,0.00
"CA001108482","1996-03-09",,,270.00,0.00,0.00
"CA001108482","1996-03-10",,,222.00,0.00,0.00
"CA001108482","1996-03-11",,,0.00,0.00,0.00
"CA001108482","1996-03-12",,,0.00,0.00,0.00
"CA001108482","1996-03-13",,,0.00,0.00,0.00
"CA001108482","1996-03-14",,,0.00,0.00,0.00
"CA001108482","1996-03-15",,,0.00,0.00,0.00
"CA001108482","1996-03-16",,,14.00,0.00,0.00
"CA001108482","1996-03-17",,,0.00,0.00,0.00
"CA001108482","1996-03-18",,,20.00,0.00,0.00
"CA001108482","1996-03-19",,,54.00,0.00,0.00
"CA001108482","1996-03-20",,,20.00,0.00,0.00
"CA001108482","1996-03-21",,,14.00,0.00,0.00
"CA001108482","1996-03-22",,,10.00,0.00,0.00
"CA001108482","1996-03-23",,,0.00,0.00,0.00
"CA001108482","1996-03-24",,,0.00,0.00,0.00
"CA001108482","1996-03-25",,,0.00,0.00,0.00
"CA001108482","1996-03-26",,,0.00,0.00,0.00
"CA001108482","1996-03-27",,,0.00,0.00,0.00
"CA001108482","1996-03-28",,,0.00,0.00,0.00
"CA001108482","1996-03-29",,,6.00,0.00,0.00
"CA001108482","1996-03-30",,,8.00,0.00,0.00
"CA001108482","1996-03-31",,,76.00,0.00,0.00
"CA001108482","1996-04-01",,,168.00,0.00,0.00
"CA001108482","1996-04-02",,,0.00,0.00,0.00
"CA001108482","1996-04-03",,,2.00,0.00,0.00
"CA001108482","1996-04-04",,,,0.00,0.00
"CA001108482","1996-04-05",,,,0.00,0.00
"CA001108482","1996-04-06",,,,0.00,0.00
"CA001108482","1996-04-07",,,0.00,0.00,0.00
"CA001108482","1996-04-08",,,10.00,0.00,0.00
"CA001108482","1996-04-09",,,70.00,0.00,0.00
"CA001108482","1996-04-10",,,86.00,0.00,0.00
"CA001108482","1996-04-11",,,148.00,0.00,0.00
"CA001108482","1996-04-12",,,0.00,0.00,0.00
"CA001108482","1996-04-13",,,0.00,0.00,0.00
"CA001108482","1996-04-14",,,36.00,0.00,0.00
"CA001108482","1996-04-15",,,408.00,0.00,0.00
"CA001108482","1996-04-16",,,30.00,0.00,0.00
"CA001108482","1996-04-17",,,36.00,0.00,0.00
"CA001108482","1996-04-18",,,36.00,0.00,0.00
"CA001108482","1996-04-19",,,0.00,0.00,0.00
"CA001108482","1996-04-20",,,0.00,0.00,0.00
"CA001108482","1996-04-21",,,20.00,0.00,0.00
"CA001108482","1996-04-22",,,322.00,0.00,0.00
"CA001108482","1996-04-23",,,184.00,0.00,0.00
"CA001108482","1996-04-24",,,2.00,0.00,0.00
"CA001108482","1996-04-25",,,158.00,0.00,0.00
"CA001108482","1996-04-26",,,30.00,0.00,0.00
"CA001108482","1996-04-27",,,0.00,0.00,0.00
"CA001108482","1996-04-28",,,50.00,0.00,0.00
"CA001108482","1996-04-29",,,0.00,0.00,0.00
"CA001108482","1996-04-30",,,94.00,0.00,0.00
"CA001108482","1996-05-01",,,6.00,0.00,0.00
"CA001108482","1996-05-02",,,0.00,0.00,0.00
"CA001108482","1996-05-03",,,20.00,0.00,0.00
"CA001108482","1996-05-04",,,0.00,0.00,0.00
"CA001108482","1996-05-05",,,0.00,0.00,0.00
"CA001108482","1996-05-06",,,24.00,0.00,0.00
"CA001108482","1996-05-07",,,16.00,0.00,0.00
"CA001108482","1996-05-08",,,0.00,0.00,0.00
"CA001108482","1996-05-09",,,2.00,0.00,0.00
"CA001108482","1996-05-10",,,0.00,0.00,0.00
"CA001108482","1996-05-11",,,20.00,0.00,0.00
"CA001108482","1996-05-12",,,144.00,0.00,0.00
"CA001108482","1996-05-13",,,2.00,0.00,0.00
"CA001108482","1996-05-14",,,2.00,0.00,0.00
"CA001108482","1996-05-15",,,0.00,0.00,0.00
"CA001108482","1996-05-16",,,58.00,0.00,0.00
"CA001108482","1996-05-17",,,174.00,0.00,0.00
"CA001108482","1996-05-18",,,52.00,0.00,0.00
"CA001108482","1996-05-19",,,2.00,0.00,0.00
"CA001108482","1996-05-20",,,2.00,0.00,0.00
"CA001108482","1996-05-21",,,156.00,0.00,0.00
"CA001108482","1996-05-22",,,74.00,0.00,0.00
"CA001108482","1996-05-23",,,0.00,0.00,0.00
"CA001108482","1996-05-24",,,0.00,0.00,0.00
"CA001108482","1996-05-25",,,2.00,0.00,0.00
"CA001108482","1996-05-26",,,0.00,0.00,0.00
"CA001108482","1996-05-27",,,0.00,0.00,0.00
"CA001108482","1996-05-28",,,0.00,0.00,0.00
"CA001108482","1996-05-29",,,0.00,0.00,0.00
"CA001108482","1996-05-30",,,0.00,0.00,0.00
"CA001108482","1996-05-31",,,0.00,0.00,0.00
"CA001108482","1996-06-01",,,20.00,0.00,0.00
"CA001108482","1996-06-02",,,2.00,0.00,0.00
"CA001108482","1996-06-03",,,0.00,0.00,0.00
"CA001108482","1996-06-04",,,0.00,0.00,0.00
"CA001108482","1996-06-05",,,0.00,0.00,0.00
"CA001108482","1996-06-06",,,0.00,0.00,0.00
"CA001108482","1996-06-07",,,0.00,0.00,0.00
"CA001108482","1996-06-08",,,0.00,0.00,0.00
"CA001108482","1996-06-09",,,4.00,0.00,0.00
"CA001108482","1996-06-10",,,28.00,0.00,0.00
"CA001108482","1996-06-11",,,0.00,0.00,0.00
"CA001108482","1996-06-12",,,0.00,0.00,0.00
"CA001108482","1996-06-13",,,0.00,0.00,0.00
"CA001108482","1996-06-14",,,0.00,0.00,0.00
"CA001108482","1996-06-15",,,0.00,0.00,0.00
"CA001108482","1996-06-16",,,0.00,0.00,0.00
"CA001108482","1996-06-17",,,0.00,0.00,0.00
"CA001108482","1996-06-18",,,0.00,0.00,0.00
"CA001108482","1996-06-19",,,0.00,0.00,0.00
"CA001108482","1996-06-20",,,0.00,0.00,0.00
"CA001108482","1996-06-21",,,0.00,0.00,0.00
"CA001108482","1996-06-22",,,0.00,0.00,0.00
"CA001108482","1996-06-23",,,76.00,0.00,0.00
"CA001108482","1996-06-24",,,72.00,0.00,0.00
"CA001108482","1996-06-25",,,0.00,0.00,0.00
"CA001108482","1996-06-26",,,4.00,0.00,0.00
"CA001108482","1996-06-27",,,0.00,0.00,0.00
"CA001108482","1996-06-28",,,0.00,0.00,0.00
"CA001108482","1996-06-29",,,0.00,0.00,0.00
"CA001108482","1996-06-30",,,0.00,0.00,0.00
"CA001108482","1996-07-01",,,0.00,0.00,0.00
"CA001108482","1996-07-02",,,20.00,0.00,0.00
"CA001108482","1996-07-03",,,2.00,0.00,0.00
"CA001108482","1996-07-04",,,0.00,0.00,0.00
"CA001108482","1996-07-05",,,0.00,0.00,0.00
"CA001108482","1996-07-06",,,0.00,0.00,0.00
"CA001108482","1996-07-07",,,0.00,0.00,0.00
"CA001108482","1996-07-08",,,0.00,0.00,0.00
"CA001108482","1996-07-09",,,0.00,0.00,0.00
"CA001108482","1996-07-10",,,0.00,0.00,0.00
"CA001108482","1996-07-11",,,0.00,0.00,0.00
"CA001108482","1996-07-12",,,0.00,0.00,0.00
"CA001108482","1996-07-13",,,0.00,0.00,0.00
"CA001108482","1996-07-14",,,0.00,0.00,0.00
"CA001108482","1996-07-15",,,0.00,0.00,0.00
"CA001108482","1996-07-16",,,132.00,0.00,0.00
"CA001108482","1996-07-17",,,14.00,0.00,0.00
"CA001108482","1996-07-18",,,30.00,0.00,0.00
"CA001108482","1996-07-19",,,42.00,0.00,0.00
"CA001108482","1996-07-20",,,0.00,0.00,0.00
"CA001108482","1996-07-21",,,0.00,0.00,0.00
"CA001108482","1996-07-22",,,0.00,0.00,0.00
"CA001108482","1996-07-23",,,0.00,0.00,0.00
"CA001108482","1996-07-24",,,0.00,0.00,0.00
"CA001108482","1996-07-25",,,0.00,0.00,0.00
"CA001108482","1996-07-26",,,0.00,0.00,0.00
"CA001108482","1996-07-27",,,0.00,0.00,0.00
"CA001108482","1996-07-28",,,0.00,0.00,0.00
"CA001108482","1996-07-29",,,0.00,0.00,0.00
"CA001108482","1996-07-30",,,0.00,0.00,0.00
"CA001108482","1996-07-31",,,0.00,0.00,0.00
"CA001108482","1996-08-01",,,40.00,0.00,0.00
"CA001108482","1996-08-02",,,,0.00,0.00
"CA001108482","1996-08-03",,,,0.00,0.00
"CA001108482","1996-08-04",,,,0.00,0.00
"CA001108482","1996-08-05",,,0.00,0.00,0.00
"CA001108482","1996-08-06",,,0.00,0.00,0.00
"CA001108482","1996-08-07",,,0.00,0.00,0.00
"CA001108482","1996-08-08",,,0.00,0.00,0.00
"CA001108482","1996-08-09",,,0.00,0.00,0.00
"CA001108482","1996-08-10",,,0.00,0.00,0.00
"CA001108482","1996-08-11",,,0.00,0.00,0.00
"CA001108482","1996-08-12",,,0.00,0.00,0.00
"CA001108482","1996-08-13",,,0.00,0.00,0.00
"CA001108482","1996-08-14",,,0.00,0.00,0.00
"CA001108482","1996-08-15",,,0.00,0.00,0.00
"CA001108482","1996-08-16",,,0.00,0.00,0.00
"CA001108482","1996-08-17",,,0.00,0.00,0.00
"CA001108482","1996-08-18",,,,0.00,0.00
"CA001108482","1996-08-19",,,,0.00,0.00
"CA001108482","1996-08-20",,,0.00,0.00,0.00
"CA001108482","1996-08-21",,,0.00,0.00,0.00
"CA001108482","1996-08-22",,,0.00,0.00,0.00
"CA001108482","1996-08-23",,,0.00,0.00,0.00
"CA001108482","1996-08-24",,,0.00,0.00,0.00
"CA001108482","1996-08-25",,,0.00,0.00,0.00
"CA001108482","1996-08-26",,,0.00,0.00,0.00
"CA001108482","1996-08-27",,,0.00,0.00,0.00
"CA001108482","1996-08-28",,,2.00,0.00,0.00
"CA001108482","1996-08-29",,,2.00,0.00,0.00
"CA001108482","1996-08-30",,,58.00,0.00,0.00
"CA001108482","1996-08-31",,,0.00,0.00,0.00
"CA001108482","1996-09-01",,,0.00,0.00,0.00
"CA001108482","1996-09-02",,,76.00,0.00,0.00
"CA001108482","1996-09-03",,,14.00,0.00,0.00
"CA001108482","1996-09-04",,,2.00,0.00,0.00
"CA001108482","1996-09-05",,,40.00,0.00,0.00
"CA001108482","1996-09-06",,,114.00,0.00,0.00
"CA001108482","1996-09-07",,,118.00,0.00,0.00
"CA001108482","1996-09-08",,,0.00,0.00,0.00
"CA001108482","1996-09-09",,,0.00,0.00,0.00
"CA001108482","1996-09-10",,,0.00,0.00,0.00
"CA001108482","1996-09-11",,,0.00,0.00,0.00
"CA001108482","1996-09-12",,,0.00,0.00,0.00
"CA001108482","1996-09-13",,,74.00,0.00,0.00
"CA001108482","1996-09-14",,,220.00,0.00,0.00
"CA001108482","1996-09-15",,,42.00,0.00,0.00
"CA001108482","1996-09-16",,,0.00,0.00,0.00
"CA001108482","1996-09-17",,,0.00,0.00,0.00
"CA001108482","1996-09-18",,,26.00,0.00,0.00
"CA001108482","1996-09-19",,,0.00,0.00,0.00
"CA001108482","1996-09-20",,,8.00,0.00,0.00
"CA001108482","1996-09-21",,,64.00,0.00,0.00
"CA001108482","1996-09-22",,,0.00,0.00,0.00
"CA001108482","1996-09-23",,,0.00,0.00,0.00
"CA001108482","1996-09-24",,,0.00,0.00,0.00
"CA001108482","1996-09-25",,,0.00,0.00,0.00
"CA001108482","1996-09-26",,,0.00,0.00,0.00
"CA001108482","1996-09-27",,,0.00,0.00,0.00
"CA001108482","1996-09-28",,,0.00,0.00,0.00
"CA001108482","1996-09-29",,,0.00,0.00,0.00
"CA001108482","1996-09-30",,,0.00,0.00,0.00
"CA001108482","1996-10-01",,,0.00,0.00,0.00
"CA001108482","1996-10-02",,,90.00,0.00,0.00
"CA001108482","1996-10-03",,,130.00,0.00,0.00
"CA001108482","1996-10-04",,,186.00,0.00,0.00
"CA001108482","1996-10-05",,,0.00,0.00,0.00
"CA001108482","1996-10-06",,,0.00,0.00,0.00
"CA001108482","1996-10-07",,,0.00,0.00,0.00
"CA001108482","1996-10-08",,,0.00,0.00,0.00
"CA001108482","1996-10-09",,,0.00,0.00,0.00
"CA001108482","1996-10-10",,,78.00,0.00,0.00
"CA001108482","1996-10-11",,,24.00,0.00,0.00
"CA001108482","1996-10-12",,,216.00,0.00,0.00
"CA001108482","1996-10-13",,,164.00,0.00,0.00
"CA001108482","1996-10-14",,,320.00,0.00,0.00
"CA001108482","1996-10-15",,,24.00,0.00,0.00
"CA001108482","1996-10-16",,,2.00,0.00,0.00
"CA001108482","1996-10-17",,,402.00,0.00,0.00
"CA001108482","1996-10-18",,,16.00,0.00,0.00
"CA001108482","1996-10-19",,,0.00,0.00,0.00
"CA001108482","1996-10-20",,,16.00,0.00,0.00
"CA001108482","1996-10-21",,,206.00,0.00,0.00
"CA001108482","1996-10-22",,,12.00,0.00,0.00
"CA001108482","1996-10-23",,,452.00,0.00,0.00
"CA001108482","1996-10-24",,,100.00,0.00,0.00
"CA001108482","1996-10-25",,,0.00,0.00,0.00
"CA001108482","1996-10-26",,,14.00,0.00,0.00
"CA001108482","1996-10-27",,,574.00,0.00,0.00
"CA001108482","1996-10-28",,,108.00,0.00,0.00
"CA001108482","1996-10-29",,,0.00,0.00,0.00
"CA001108482","1996-10-30",,,0.00,0.00,0.00
"CA001108482","1996-10-31",,,0.00,0.00,0.00
"CA001108482","1996-11-01",,,0.00,0.00,0.00
"CA001108482","1996-11-02",,,18.00,0.00,0.00
"CA001108482","1996-11-03",,,92.00,0.00,0.00
"CA001108482","1996-11-04",,,0.00,0.00,0.00
"CA001108482","1996-11-05",,,160.00,0.00,0.00
"CA001108482","1996-11-06",,,4.00,0.00,0.00
"CA001108482","1996-11-07",,,190.00,0.00,0.00
"CA001108482","1996-11-08",,,14.00,0.00,0.00
"CA001108482","1996-11-09",,,0.00,0.00,0.00
"CA001108482","1996-11-10",,,0.00,0.00,0.00
"CA001108482","1996-11-11",,,86.00,0.00,0.00
"CA001108482","1996-11-12",,,394.00,0.00,0.00
"CA001108482","1996-11-13",,,0.00,0.00,0.00
"CA001108482","1996-11-14",,,0.00,0.00,0.00
"CA001108482","1996-11-15",,,146.00,0.00,0.00
"CA001108482","1996-11-16",,,88.00,78.00,0.00
"CA001108482","1996-11-17",,,40.00,40.00,40.00
"CA001108482","1996-11-18",,,2.00,2.00,30.00
"CA001108482","1996-11-19",,,34.00,34.00,10.00
"CA001108482","1996-11-20",,,4.00,4.00,40.00
"CA001108482","1996-11-21",,,0.00,0.00,30.00
"CA001108482","1996-11-22",,,0.00,0.00,10.00
"CA001108482","1996-11-23",,,42.00,0.00,10.00
"CA001108482","1996-11-24",,,58.00,0.00,
"CA001108482","1996-11-25",,,42.00,0.00,
"CA001108482","1996-11-26",,,404.00,0.00,0.00
"CA001108482","1996-11-27",,,150.00,0.00,0.00
"CA001108482","1996-11-28",,,52.00,0.00,0.00
"CA001108482","1996-11-29",,,20.00,0.00,0.00
"CA001108482","1996-11-30",,,136.00,0.00,0.00
"CA001108482","1996-12-01",,,,,0.00
"CA001108482","1996-12-02",,,,,30.00
"CA001108482","1996-12-03",,,4.00,0.00,20.00
"CA001108482","1996-12-04",,,246.00,0.00,10.00
"CA001108482","1996-12-05",,,72.00,0.00,0.00
"CA001108482","1996-12-06",,,52.00,0.00,0.00
"CA001108482","1996-12-07",,,262.00,0.00,0.00
"CA001108482","1996-12-08",,,78.00,0.00,0.00
"CA001108482","1996-12-09",,,64.00,0.00,0.00
"CA001108482","1996-12-10",,,94.00,0.00,0.00
"CA001108482","1996-12-11",,,14.00,0.00,0.00
"CA001108482","1996-12-12",,,126.00,0.00,0.00
"CA001108482","1996-12-13",,,100.00,0.00,0.00
"CA001108482","1996-12-14",,,2.00,0.00,0.00
"CA001108482","1996-12-15",,,128.00,0.00,0.00
"CA001108482","1996-12-16",,,0.00,0.00,0.00
"CA001108482","1996-12-17",,,0.00,0.00,0.00
"CA001108482","1996-12-18",,,4.00,0.00,0.00
"CA001108482","1996-12-19",,,,,0.00
"CA001108482","1996-12-20",,,98.00,0.00,10.00
"CA001108482","1996-12-21",,,68.00,32.00,
"CA001108482","1996-12-22",,,140.00,140.00,30.00
"CA001108482","1996-12-23",,,10.00,10.00,170.00
"CA001108482","1996-12-24",,,0.00,0.00,170.00
"CA001108482","1996-12-25",,,0.00,0.00,150.00
"CA001108482","1996-12-26",,,0.00,0.00,130.00
"CA001108482","1996-12-27",,,10.00,10.00,130.00
"CA001108482","1996-12-28",,,170.00,170.00,120.00
"CA001108482","1996-12-29",,,276.00,190.00,270.00
"CA001108482","1996-12-30",,,166.00,0.00,360.00
"CA001108482","1996-12-31",,,290.00,0.00,130.00
"CA001108482","1997-01-01",,,118.00,0.00,0.00
"CA001108482","1997-01-02",,,58.00,0.00,0.00
"CA001108482","1997-01-03",,,2.00,0.00,0.00
"CA001108482","1997-01-04",,,8.00,0.00,0.00
"CA001108482","1997-01-05",,,42.00,0.00,0.00
"CA001108482","1997-01-06",,,362.00,0.00,0.00
"CA001108482","1997-01-07",,,10.00,0.00,0.00
"CA001108482","1997-01-08",,,154.00,0.00,0.00
"CA001108482","1997-01-09",,,2.00,0.00,0.00
"CA001108482","1997-01-10",,,0.00,0.00,0.00
"CA001108482","1997-01-11",,,0.00,0.00,0.00
"CA001108482","1997-01-12",,,0.00,0.00,0.00
"CA001108482","1997-01-13",,,0.00,0.00,0.00
"CA001108482","1997-01-14",,,0.00,0.00,0.00
"CA001108482","1997-01-15",,,0.00,0.00,0.00
"CA001108482","1997-01-16",,,236.00,0.00,0.00
"CA001108482","1997-01-17",,,150.00,0.00,0.00
"CA001108482","1997-01-18",,,450.00,0.00,0.00
"CA001108482","1997-01-19",,,200.00,0.00,0.00
"CA001108482","1997-01-20",,,32.00,0.00,0.00
"CA001108482","1997-01-21",,,,0.00,0.00
"CA001108482","1997-01-22",,,,0.00,0.00
"CA001108482","1997-01-23",,,62.00,0.00,0.00
"CA001108482","1997-01-24",,,0.00,0.00,0.00
"CA001108482","1997-01-25",,,0.00,0.00,0.00
"CA001108482","1997-01-26",,,0.00,0.00,0.00
"CA001108482","1997-01-27",,,170.00,0.00,0.00
"CA001108482","1997-01-28",,,30.00,0.00,0.00
"CA001108482","1997-01-29",,,530.00,0.00,0.00
"CA001108482","1997-01-30",,,0.00,0.00,0.00
"CA001108482","1997-01-31",,,70.00,0.00,0.00
"CA001108482","1997-02-01",,,10.00,0.00,0.00
"CA001108482","1997-02-02",,,55.00,0.00,0.00
"CA001108482","1997-02-03",,,0.00,0.00,0.00
"CA001108482","1997-02-04",,,0.00,0.00,0.00
"CA001108482","1997-02-05",,,0.00,0.00,0.00
"CA001108482","1997-02-06",,,10.00,0.00,0.00
"CA001108482","1997-02-07",,,0.00,0.00,0.00
"CA001108482","1997-02-08",,,0.00,0.00,0.00
"CA001108482","1997-02-09",,,0.00,0.00,0.00
"CA001108482","1997-02-10",,,10.00,0.00,0.00
"CA001108482","1997-02-11",,,230.00,0.00,0.00
"CA001108482","1997-02-12",,,52.00,0.00,0.00
"CA001108482","1997-02-13",,,256.00,0.00,0.00